Coatesville, PA

2:58 AM EDT on May 25, 2017 (GMT -0400)
Chester County Carlson

Weather History for KMQS - November, 2011

Change the Weather History Date:

Saturday, November 19, 2011

  Actual Average (KILG) Record (KILG)
Temperature  
Mean Temperature 40 °F -  
Max Temperature 51 °F 53 °F 75 °F (1921)
Min Temperature 30 °F 35 °F 15 °F (1936)
Degree Days  
Heating Degree Days 24    
Moisture  
Dew Point 27 °F    
Average Humidity 64    
Maximum Humidity 87    
Minimum Humidity 35    
Precipitation  
Precipitation 0.00 in - - ()
Sea Level Pressure  
Sea Level Pressure 30.38 in    
Wind  
Wind Speed 2 mph (SSW)    
Max Wind Speed 9 mph    
Max Gust Speed 21 mph    
Visibility 10 miles    
Events      
Averages and records for this station are not official NWS values.
T = Trace of Precipitation, MM = Missing Value Source: NWS Daily Summary

Daily Weather History Graph

Daily Weather History Graph

Search for Another Location

Airport or City:

Trip Planner

Search our weather history database for the weather conditions in past years. The results will help you decide how hot, cold, wet, or windy it might be!

Date:

Astronomy

Nov. 19, 2011 Rise Set
Actual Time 6:52 AM EST 4:44 PM EST
Civil Twilight 6:23 AM EST 5:13 PM EST
Nautical Twilight 5:50 AM EST 5:46 PM EST
Astronomical Twilight 5:18 AM EST 6:18 PM EST
Moon 12:11 AM EST (11/19) 1:00 PM EST (11/19)
Length of Visible Light 10h 50m
Length of Day
9h 51m
Last Quarter, 38% of the Moon is Illuminated
Nov 19
Last Quarter
Nov 25
New
Dec 2
First Quarter
Dec 10
Full
Dec 17
Last Quarter

Hourly Weather History & Observations

Time (EST) Temp. Windchill Dew Point Humidity Pressure Visibility Wind Dir Wind Speed Gust Speed Precip Events Conditions
12:15 AM 32.0 °F - 26.6 °F 80% 30.42 in 10.0 mi Calm Calm - N/A   Clear
12:35 AM 32.0 °F - 26.6 °F 80% 30.41 in 10.0 mi Calm Calm - N/A   Clear
12:55 AM 32.0 °F - 26.6 °F 80% 30.42 in 10.0 mi Calm Calm - N/A   Clear
1:15 AM 32.0 °F - 26.6 °F 80% 30.42 in 10.0 mi Calm Calm - N/A   Clear
1:35 AM 30.2 °F - 26.6 °F 86% 30.42 in 10.0 mi Calm Calm - N/A   Clear
1:55 AM 32.0 °F - 26.6 °F 80% 30.42 in 10.0 mi Calm Calm - N/A   Clear
2:15 AM 32.0 °F - 26.6 °F 80% 30.43 in 10.0 mi Calm Calm - N/A   Clear
2:35 AM 32.0 °F - 26.6 °F 80% 30.43 in 10.0 mi Calm Calm - N/A   Clear
2:55 AM 32.0 °F - 26.6 °F 80% 30.43 in 10.0 mi Calm Calm - N/A   Clear
3:15 AM 32.0 °F - 26.6 °F 80% 30.42 in 10.0 mi Calm Calm - N/A   Clear
3:35 AM 32.0 °F - 26.6 °F 80% 30.42 in 10.0 mi Calm Calm - N/A   Clear
3:55 AM 32.0 °F - 26.6 °F 80% 30.41 in 10.0 mi Calm Calm - N/A   Clear
4:15 AM 32.0 °F - 26.6 °F 80% 30.41 in 10.0 mi Calm Calm - N/A   Clear
4:35 AM 30.2 °F - 26.6 °F 86% 30.42 in 10.0 mi Calm Calm - N/A   Clear
4:55 AM 32.0 °F - 26.6 °F 80% 30.42 in 10.0 mi Calm Calm - N/A   Clear
5:15 AM 30.2 °F - 26.6 °F 86% 30.42 in 10.0 mi Calm Calm - N/A   Clear
5:35 AM 30.2 °F - 26.6 °F 86% 30.42 in 10.0 mi Calm Calm - N/A   Clear
5:55 AM 30.2 °F - 26.6 °F 86% 30.43 in 10.0 mi Calm Calm - N/A   Clear
6:15 AM 30.2 °F - 26.6 °F 86% 30.42 in 10.0 mi Calm Calm - N/A   Clear
6:35 AM 30.2 °F - 26.6 °F 86% 30.42 in 10.0 mi Calm Calm - N/A   Clear
6:55 AM 30.2 °F - 26.6 °F 86% 30.43 in 10.0 mi Calm Calm - N/A   Clear
7:15 AM 30.2 °F - 26.6 °F 86% 30.43 in 10.0 mi Calm Calm - N/A   Clear
7:55 AM 32.0 °F - 28.4 °F 87% 30.43 in 10.0 mi Calm Calm - N/A   Clear
8:35 AM 33.8 °F - 30.2 °F 87% 30.44 in 10.0 mi Calm Calm - N/A   Clear
9:15 AM 37.4 °F 34.9 °F 32.0 °F 81% 30.44 in 10.0 mi South 3.5 mph - N/A   Clear
9:35 AM 39.2 °F 37.0 °F 32.0 °F 75% 30.44 in 10.0 mi SSE 3.5 mph - N/A   Clear
9:55 AM 41.0 °F 37.1 °F 32.0 °F 70% 30.44 in 10.0 mi SSE 5.8 mph - N/A   Clear
10:15 AM 44.6 °F 41.4 °F 32.0 °F 61% 30.44 in 10.0 mi South 5.8 mph - N/A   Clear
10:55 AM 46.4 °F 42.9 °F 32.0 °F 57% 30.43 in 10.0 mi SW 6.9 mph - N/A   Clear
11:35 AM 48.2 °F - 30.2 °F 50% 30.41 in 10.0 mi SSW 4.6 mph - N/A   Clear
11:55 AM 48.2 °F - 26.6 °F 43% 30.40 in 10.0 mi SW 8.1 mph 20.7 mph N/A   Clear
12:15 PM 50.0 °F - 26.6 °F 40% 30.38 in 10.0 mi South 8.1 mph - N/A   Clear
12:35 PM 50.0 °F - 23.0 °F 35% 30.37 in 10.0 mi SSW 6.9 mph 18.4 mph N/A   Clear
12:55 PM 51.8 °F - 28.4 °F 41% 30.36 in 10.0 mi SSW 6.9 mph - N/A   Clear
1:15 PM 50.0 °F - 28.4 °F 43% 30.35 in 10.0 mi South 8.1 mph - N/A   Clear
1:35 PM 51.8 °F - 24.8 °F 35% 30.34 in 10.0 mi SW 8.1 mph 18.4 mph N/A   Clear
1:55 PM 50.0 °F - 24.8 °F 37% 30.34 in 10.0 mi SSW 9.2 mph 17.3 mph N/A   Clear
2:15 PM 48.2 °F - 24.8 °F 40% 30.33 in 10.0 mi South 6.9 mph - N/A   Clear
2:35 PM 48.2 °F - 24.8 °F 40% 30.32 in 10.0 mi South 6.9 mph - N/A   Clear
2:55 PM 50.0 °F - 24.8 °F 37% 30.32 in 10.0 mi South 9.2 mph 16.1 mph N/A   Clear
3:15 PM 50.0 °F - 26.6 °F 40% 30.31 in 10.0 mi SSW 6.9 mph 18.4 mph N/A   Clear
3:35 PM 50.0 °F - 26.6 °F 40% 30.32 in 10.0 mi South 6.9 mph - N/A   Clear
3:55 PM 48.2 °F - 26.6 °F 43% 30.32 in 10.0 mi South 6.9 mph - N/A   Clear
4:15 PM 48.2 °F - 24.8 °F 40% 30.31 in 10.0 mi South 5.8 mph - N/A   Clear
4:35 PM 46.4 °F 43.5 °F 26.6 °F 46% 30.30 in 10.0 mi South 5.8 mph - N/A   Clear
5:15 PM 44.6 °F 43.1 °F 26.6 °F 49% 30.30 in 10.0 mi South 3.5 mph - N/A   Clear
5:35 PM 42.8 °F 41.1 °F 26.6 °F 53% 30.30 in 10.0 mi SSW 3.5 mph - N/A   Clear
5:55 PM 44.6 °F 42.2 °F 26.6 °F 49% 30.31 in 10.0 mi South 4.6 mph - N/A   Clear
6:15 PM 44.6 °F 43.1 °F 26.6 °F 49% 30.31 in 10.0 mi SSW 3.5 mph - N/A   Clear
6:35 PM 44.6 °F - 28.4 °F 53% 30.31 in 10.0 mi Calm Calm - N/A   Clear
6:55 PM 42.8 °F - 28.4 °F 57% 30.30 in 10.0 mi Calm Calm - N/A   Clear
7:15 PM 41.0 °F - 28.4 °F 61% 30.30 in 10.0 mi Calm Calm - N/A   Clear
7:35 PM 41.0 °F - 30.2 °F 65% 30.29 in 10.0 mi Calm Calm - N/A   Clear
7:55 PM 42.8 °F - 30.2 °F 61% 30.29 in 10.0 mi Calm Calm - N/A   Clear
8:15 PM 42.8 °F - 32.0 °F 66% 30.29 in 10.0 mi Calm Calm - N/A   Clear
8:35 PM 42.8 °F - 32.0 °F 66% 30.29 in 10.0 mi Calm Calm - N/A   Clear
8:55 PM 42.8 °F - 33.8 °F 70% 30.28 in 10.0 mi Calm Calm - N/A   Clear
9:15 PM 42.8 °F - 35.6 °F 76% 30.28 in 10.0 mi Calm Calm - N/A   Clear
9:35 PM 42.8 °F - 35.6 °F 76% 30.29 in 10.0 mi Calm Calm - N/A   Clear
9:55 PM 42.8 °F 41.1 °F 37.4 °F 81% 30.28 in 10.0 mi SW 3.5 mph - N/A   Clear
10:15 PM 44.6 °F 43.1 °F 37.4 °F 76% 30.28 in 10.0 mi SSW 3.5 mph - N/A   Clear
10:35 PM 44.6 °F 43.1 °F 37.4 °F 76% 30.27 in 10.0 mi SSW 3.5 mph - N/A   Clear
10:55 PM 42.8 °F - 39.2 °F 87% 30.26 in 10.0 mi Calm Calm - N/A   Clear
11:15 PM 44.6 °F - 39.2 °F 81% 30.26 in 10.0 mi Calm Calm - N/A   Clear
11:35 PM 42.8 °F - 39.2 °F 87% 30.26 in 10.0 mi Calm Calm - N/A   Clear
11:55 PM 42.8 °F - 39.2 °F 87% 30.26 in 10.0 mi Calm Calm - N/A   Clear